Weather History for PABA - May, 2013

Change the Weather History Date:

Saturday, May 25, 2013

  Actual Average (WUND) Record (WUND)
Temperature  
Mean Temperature 30 °F -  
Max Temperature 32 °F - - (-1)
Min Temperature 24 °F - - (-1)
Degree Days  
Heating Degree Days 35    
Moisture  
Dew Point 31 °F    
Average Humidity 98    
Maximum Humidity 100    
Minimum Humidity 93    
Precipitation  
Precipitation 0.00 in - - ()
Sea Level Pressure  
Sea Level Pressure 30.13 in    
Wind  
Wind Speed 10 mph (East)    
Max Wind Speed 15 mph    
Max Gust Speed -    
Visibility 10 miles    
Events      
Averages and records for this station are not official NWS values.
T = Trace of Precipitation, MM = Missing Value Source: NWS Daily Summary

Daily Weather History Graph

Daily Weather History Graph

Search for Another Location

Airport or City:

Trip Planner

Search our weather history database for the weather conditions in past years. The results will help you decide how hot, cold, wet, or windy it might be!

Date:

Astronomy

Dec. 31, 1969 Rise Set
Actual Time Sun does not set Sun does not set
Civil Twilight Sun does not set Sun does not set
Nautical Twilight Sun does not set Sun does not set
Astronomical Twilight Sun does not set Sun does not set
Moon No Moon Rise No Moon Set
Length of Visible Light 24h 00m
Length of Day
24h 00m
Full, 99% of the Moon is Illuminated
May 25
Full
May 31
Last Quarter
Jun 8
New
Jun 16
First Quarter
Jun 23
Full

Hourly Weather History & Observations

Time (AKDT) Temp. Windchill Dew Point Humidity Pressure Visibility Wind Dir Wind Speed Gust Speed Precip Events Conditions
12:01 AM 27.0 °F 18.7 °F 27.0 °F 100% 30.22 in 10.0 mi East 8.1 mph - N/A   Unknown
1:01 AM 25.0 °F 17.1 °F 25.0 °F 100% 30.21 in 10.0 mi East 6.9 mph - N/A   Unknown
2:01 AM 25.0 °F 14.8 °F 25.0 °F 100% 30.21 in 10.0 mi East 10.4 mph - N/A   Unknown
3:01 AM 24.1 °F 14.4 °F 24.1 °F 100% 30.20 in 10.0 mi East 9.2 mph - N/A   Unknown
4:01 AM 24.1 °F 13.7 °F 24.1 °F 100% 30.20 in 10.0 mi East 10.4 mph - N/A   Unknown
5:01 AM 25.0 °F 16.3 °F 25.0 °F 100% 30.19 in 10.0 mi East 8.1 mph - N/A   Unknown
6:01 AM 26.1 °F 17.6 °F 26.1 °F 100% 30.19 in 10.0 mi ESE 8.1 mph - N/A   Unknown
7:01 AM 28.0 °F 20.0 °F 28.0 °F 100% 30.17 in 6.0 mi ESE 8.1 mph - N/A   Mist
8:01 AM 28.9 °F 21.1 °F 28.9 °F 100% 30.16 in 10.0 mi East 8.1 mph - N/A   Unknown
9:01 AM 30.0 °F 21.1 °F 30.0 °F 100% 30.15 in 10.0 mi East 10.4 mph - N/A   Unknown
10:01 AM 32.0 °F 22.5 °F 32.0 °F 100% 30.14 in 10.0 mi East 12.7 mph - N/A   Unknown
11:01 AM 33.1 °F 23.4 °F 33.1 °F 100% 30.13 in 10.0 mi East 13.8 mph - N/A   Unknown
12:01 PM 33.1 °F 23.0 °F 33.1 °F 100% 30.12 in 10.0 mi East 15.0 mph - N/A   Unknown
1:01 PM 34.0 °F 24.6 °F 33.1 °F 96% 30.11 in 10.0 mi East 13.8 mph - N/A   Unknown
2:01 PM 35.1 °F 25.9 °F 34.0 °F 96% 30.11 in 10.0 mi East 13.8 mph - N/A   Unknown
3:01 PM 35.1 °F 25.9 °F 34.0 °F 96% 30.10 in 10.0 mi East 13.8 mph - N/A   Unknown
4:01 PM 35.1 °F 26.9 °F 34.0 °F 96% 30.09 in 10.0 mi East 11.5 mph - N/A   Unknown
5:01 PM 36.0 °F 27.5 °F 34.0 °F 93% 30.08 in 10.0 mi East 12.7 mph - N/A   Unknown
6:01 PM 35.1 °F 26.4 °F 34.0 °F 96% 30.07 in 10.0 mi East 12.7 mph - N/A   Unknown
7:01 PM 35.1 °F 27.9 °F 34.0 °F 96% 30.06 in 10.0 mi East 9.2 mph - N/A   Unknown
8:01 PM 35.1 °F 27.4 °F 34.0 °F 96% 30.05 in 10.0 mi East 10.4 mph - N/A   Unknown
9:01 PM 34.0 °F 26.6 °F 33.1 °F 96% 30.04 in 10.0 mi East 9.2 mph - N/A   Unknown
10:01 PM 34.0 °F 25.5 °F 34.0 °F 100% 30.03 in 10.0 mi East 11.5 mph - N/A   Unknown
11:01 PM 33.1 °F 24.4 °F 33.1 °F 100% 30.03 in 10.0 mi East 11.5 mph - N/A   Unknown